[[{"header":{"parameterUnit":"m.s-1","parameterCategory":1,"la1":30.2991,"la2":30.254,"lo1":-89.0895,"lo2":-89.0444,"dy":0.0017,"dx":0.0017,"nx":28,"ny":28,"refTime":"2025-05-15T03:00:00:Z","depth":0,"parameterNumber":2,"parameterNumberName":"U-component_of_WINDS"},"data":[0,0,0,0,0,0,0,0,0,0,0,0,0,0,0,0,0,0,0,0,0,0,0,0,0,0,0,0,0,0,0,0,0,0,0,0,0,0,0,0,0,0,0,0,0,0,0,0,0,0,0,0,0,0,0,0,0,0,0.9112,0.9113,0,0.9203,0.9204,0.9205,0.9225,0.9225,0.9224,0.9224,0.9318,0.9321,0.9324,0,0,0,0,0,0,0,0,0,0,0,0,0,0.8958,0.8961,0.9112,0.9113,0.9114,0.9203,0.9204,0.9205,0.9226,0.9225,0.9224,0.9223,0.9317,0.9321,0.9324,0,0,0,0,0,0,0,0,0,0,0,0,0,0.9034,0.8962,0.9112,0.9135,0.9138,0.9202,0.9204,0.9205,0.9226,0.9225,0.9224,0.9223,0.9316,0.932,0.9325,0.9373,0,0,0.9339,0.9341,0,0,0,0,0,0,0,0,0.903,0.904,0.9131,0.9134,0.9137,0.9202,0.9184,0.9262,0.9226,0.9193,0.9224,0.9222,0.928,0.9288,0.9307,0.9377,0.9381,0.9339,0.9342,0.9344,0.9346,0,0,0,0,0,0,0,0.9025,0.9036,0.9148,0.9132,0.9136,0.9142,0.9151,0.9199,0.9241,0.9195,0.9197,0.9207,0.9282,0.9302,0.9309,0.9382,0.9339,0.9343,0.9346,0.9348,0.9497,0.9498,0,0,0,0,0,0,0.9015,0.9032,0.9145,0.9151,0.908,0.9145,0.9156,0.9182,0.924,0.9248,0.9208,0.9208,0.9295,0.9304,0.9313,0.9373,0.9344,0.9349,0.9351,0.9496,0.9497,0.9499,0,0,0,0,0,0,0.9012,0.9025,0.9141,0.9092,0.9107,0.9149,0.9178,0.9184,0.9205,0.925,0.9257,0.9221,0.9294,0.9306,0.9358,0.9377,0.9351,0.9355,0.9495,0.9497,0.9498,0.9494,0,0,0,0,0,0,0.9007,0.9024,0.9042,0.9092,0.911,0.9185,0.9179,0.9187,0.9213,0.9213,0.9264,0.9272,0.9295,0.9351,0.9362,0.9383,0.9359,0.9493,0.9496,0.9498,0.9493,0.9495,0.9498,0,0,0,0,0,0.9002,0.9037,0.9043,0.9056,0.9133,0.9186,0.9196,0.9221,0.9214,0.9233,0.9262,0.927,0.9372,0.9356,0.9369,0.9391,0.9492,0.9495,0.9497,0.9491,0.9495,0.9498,0,0,0,0,0,0,0.8989,0.9044,0.9051,0.9104,0.914,0.9189,0.9214,0.9223,0.9262,0.9261,0.9291,0.9302,0.9352,0.9377,0.9357,0.9441,0.9432,0.9438,0.9423,0.9427,0.9429,0.9423,0.9362,0,0,0,0,0,0.8992,0.903,0.9076,0.9118,0.9136,0.9172,0.9195,0.9211,0.925,0.9266,0.9298,0.9336,0.9377,0.9403,0.9443,0.9496,0.9508,0.9518,0.952,0.9522,0.9527,0.9557,0.9563,0.9507,0.9507,0.9507,0,0,0.9,0.9035,0.9056,0.9117,0.9146,0.9185,0.9184,0.9225,0.9254,0.9272,0.9323,0.9348,0.9392,0.9445,0.947,0.9467,0.9544,0.9525,0.9526,0.953,0.9561,0.9566,0.957,0.9509,0.9509,0.9509,0,0,0.9033,0.9063,0.9101,0.9131,0.9176,0.92,0.9209,0.9257,0.9274,0.9325,0.9339,0.9374,0.9444,0.9475,0.9499,0.9544,0.9554,0.9556,0.957,0.96,0.9604,0.9608,0.9625,0.963,0.9561,0.9561,0.9561,0,0.9037,0.9095,0.912,0.9161,0.9187,0.9204,0.9244,0.9272,0.9327,0.9345,0.9341,0.9428,0.9459,0.952,0.9531,0.955,0.9562,0.9551,0.9601,0.9606,0.961,0.9626,0.9632,0.9561,0.9561,0.9561,0.9561,0,0.9098,0.9138,0.9164,0.9217,0.9246,0.9286,0.9318,0.9344,0.9358,0.9382,0.9434,0.9471,0.9519,0.9535,0.9548,0.9598,0.9594,0.9595,0.9587,0.9615,0.9631,0.9637,0.9561,0.9561,0.9561,0.9561,0,0,0.9126,0.9192,0.9202,0.9226,0.9277,0.9309,0.935,0.9396,0.9419,0.9456,0.9492,0.955,0.9551,0.9579,0.9596,0.9622,0.9656,0.962,0.9622,0.9626,0.9714,0.9713,0.972,0.9662,0.9664,0.9665,0.971,0,0.9166,0.9239,0.9263,0.9324,0.9362,0.9379,0.9415,0.945,0.9473,0.9509,0.9535,0.9576,0.9574,0.9591,0.9618,0.9647,0.9675,0.9644,0.9697,0.9698,0.9686,0.9729,0.9728,0.977,0.9717,0.9718,0.9719,0,0.9223,0.9262,0.9326,0.9373,0.9389,0.9421,0.9466,0.95,0.954,0.9555,0.9587,0.9602,0.9646,0.9635,0.9696,0.9674,0.9697,0.9715,0.9717,0.9724,0.9711,0.9737,0.9783,0.979,0.9728,0.9728,0.9727,0,0.9238,0.9306,0.9354,0.9374,0.9429,0.9451,0.9475,0.9515,0.9541,0.958,0.9598,0.9642,0.9666,0.97,0.9727,0.9716,0.9786,0.9777,0.9801,0.98,0.9816,0.9814,0.9867,0.9829,0.9828,0.9828,0.9828,0,0.9281,0.932,0.9362,0.9391,0.9436,0.9463,0.9506,0.9531,0.9566,0.9601,0.9618,0.9651,0.9684,0.9721,0.9742,0.979,0.9801,0.9815,0.982,0.9814,0.9812,0.983,0.9828,0.983,0.983,0.9829,0.9829,0,0.9306,0.9335,0.9389,0.9436,0.9449,0.948,0.9521,0.955,0.9574,0.9618,0.963,0.9668,0.9713,0.9743,0.98,0.9814,0.9866,0.9871,0.9853,0.9856,0.9878,0.9876,0.9945,0.9956,0.9909,0.9909,0.991,0,0.9332,0.9363,0.9414,0.9438,0.9462,0.9501,0.9528,0.9556,0.9584,0.9632,0.9656,0.9702,0.974,0.981,0.9843,0.9887,0.9893,0.9914,0.99,0.9893,0.9895,0.9893,0.9896,0.9917,0.9917,0.9917,0.9918,0,0.9375,0.9388,0.9427,0.947,0.9502,0.9538,0.9573,0.9592,0.9627,0.9657,0.9702,0.9732,0.979,0.9835,0.9882,0.9908,0.9919,0.9922,0.993,0.9924,0.9913,0.992,0.986,0.992,0.992,0.992,0.992,0.992,0.9402,0.9431,0.9471,0.9513,0.9543,0.9576,0.9606,0.9634,0.9672,0.9721,0.9735,0.9783,0.9823,0.9887,0.9913,0.9951,0.9949,0.9961,0.9964,0.9967,0.9967,0.9906,0.996,0.996,0.996,0.996,0.996,0,0.9447,0.9474,0.9512,0.9562,0.9595,0.9602,0.9642,0.967,0.9711,0.9747,0.9784,0.9837,0.9881,0.9917,0.9963,0.9987,0.9993,0.9998,0.9997,1.0003,0.9966,0.9955,0.9992,0.9992,0.9992,0.9992,0.9992,0.9992,0.9475,0.9523,0.954,0.9604,0.963,0.9677,0.9699,0.973,0.9759,0.9817,0.9854,0.9877,0.9914,0.9962,1.0003,1.0012,1.0029,1.0033,1.0044,1.0009,1.0005,1.0002,0.9992,1.0036,1.0036,1.0077,1.0078,1.0078]},{"header":{"parameterUnit":"m.s-1","parameterCategory":1,"la1":30.2991,"la2":30.254,"lo1":-89.0895,"lo2":-89.0444,"dy":0.0017,"dx":0.0017,"nx":28,"ny":28,"refTime":"2025-05-15T03:00:00:Z","depth":0,"parameterNumber":3,"parameterNumberName":"V-component_of_WINDS"},"data":[0,0,0,0,0,0,0,0,0,0,0,0,0,0,0,0,0,0,0,0,0,0,0,0,0,0,0,0,0,0,0,0,0,0,0,0,0,0,0,0,0,0,0,0,0,0,0,0,0,0,0,0,0,0,0,0,0,0,5.2148,5.2149,0,5.2193,5.2194,5.2194,5.2181,5.218,5.2179,5.2178,5.2219,5.2221,5.2223,0,0,0,0,0,0,0,0,0,0,0,0,0,5.2047,5.2049,5.2148,5.2149,5.2149,5.2193,5.2194,5.2195,5.2181,5.218,5.2178,5.2177,5.2219,5.2221,5.2224,0,0,0,0,0,0,0,0,0,0,0,0,0,5.2091,5.2049,5.2148,5.2148,5.2148,5.2193,5.2194,5.2195,5.2181,5.2179,5.2178,5.2177,5.2218,5.2221,5.2224,5.2271,0,0,5.2233,5.2234,0,0,0,0,0,0,0,0,5.2089,5.2095,5.2147,5.2148,5.2148,5.218,5.2174,5.222,5.2181,5.2168,5.2178,5.2176,5.2207,5.2211,5.2222,5.2273,5.2274,5.2233,5.2235,5.2236,5.2237,0,0,0,0,0,0,0,5.2086,5.2093,5.2166,5.2148,5.2149,5.2145,5.2149,5.2182,5.2195,5.2169,5.2168,5.2174,5.2207,5.222,5.2223,5.2275,5.2233,5.2236,5.2238,5.2239,5.2369,5.2371,0,0,0,0,0,0,5.2083,5.209,5.2164,5.2167,5.2115,5.2148,5.2153,5.2171,5.2195,5.2197,5.2175,5.2173,5.2215,5.222,5.2225,5.2284,5.2236,5.2239,5.2241,5.2367,5.2369,5.2371,0,0,0,0,0,0,5.2081,5.2089,5.2163,5.2129,5.2138,5.2151,5.2171,5.2173,5.2185,5.2199,5.2201,5.2186,5.2214,5.222,5.226,5.2285,5.224,5.2243,5.2365,5.2368,5.237,5.24,0,0,0,0,0,0,5.2078,5.2089,5.2107,5.2129,5.214,5.2198,5.2173,5.2175,5.2191,5.2189,5.221,5.2212,5.2214,5.2256,5.2263,5.2288,5.2246,5.2363,5.2367,5.237,5.2397,5.2403,5.2408,0,0,0,0,0,5.2074,5.2112,5.2108,5.2117,5.2163,5.22,5.2205,5.2208,5.2193,5.2211,5.2221,5.2211,5.2281,5.226,5.2268,5.2294,5.2362,5.2366,5.2369,5.2394,5.2402,5.2408,0,0,0,0,0,0,5.2089,5.2114,5.2111,5.2157,5.2177,5.2197,5.222,5.2216,5.2239,5.2236,5.2237,5.2242,5.2283,5.2292,5.2269,5.2342,5.2319,5.2324,5.2335,5.2342,5.2348,5.2346,5.2248,0,0,0,0,0,5.2098,5.2127,5.2147,5.2186,5.2196,5.2207,5.2223,5.2224,5.2244,5.2251,5.2263,5.2282,5.2309,5.2326,5.235,5.2398,5.2403,5.242,5.2426,5.243,5.2435,5.2464,5.2472,5.2384,5.2383,5.2383,0,0,5.2116,5.2134,5.2151,5.2189,5.2205,5.2235,5.2214,5.2245,5.2267,5.2255,5.2295,5.2305,5.2326,5.2371,5.2391,5.238,5.2461,5.2435,5.2439,5.2441,5.2469,5.2477,5.2485,5.2386,5.2386,5.2385,0,0,5.2165,5.218,5.2216,5.2233,5.2258,5.2266,5.2274,5.2297,5.2304,5.2344,5.2337,5.2362,5.2407,5.2424,5.2437,5.2497,5.2489,5.2504,5.2535,5.2563,5.257,5.2576,5.2599,5.2607,5.2509,5.2509,5.2509,0,5.2184,5.223,5.2234,5.2268,5.2286,5.2279,5.2316,5.2331,5.2362,5.2374,5.2361,5.242,5.2433,5.2483,5.2498,5.2509,5.252,5.2502,5.2569,5.2575,5.2581,5.2603,5.2612,5.2511,5.2511,5.2511,5.251,0,5.2253,5.2286,5.2311,5.2345,5.2365,5.24,5.2409,5.2429,5.2429,5.2438,5.248,5.2496,5.2526,5.2538,5.2536,5.2588,5.2581,5.2568,5.2545,5.2591,5.2612,5.2621,5.2514,5.2513,5.2512,5.2512,0,0,5.2311,5.235,5.2359,5.2376,5.2405,5.2429,5.2464,5.2495,5.2514,5.2535,5.2566,5.2605,5.2595,5.2611,5.2612,5.2636,5.2685,5.2621,5.2621,5.2634,5.2746,5.2757,5.2767,5.268,5.2682,5.2683,5.2745,0,5.2364,5.2429,5.2435,5.2492,5.2523,5.2519,5.2549,5.257,5.258,5.2607,5.2616,5.2646,5.2629,5.2639,5.2663,5.2674,5.2708,5.2669,5.2709,5.271,5.2705,5.2777,5.2788,5.2846,5.2753,5.2755,5.2756,0,5.2434,5.2463,5.2524,5.2552,5.2565,5.2592,5.2624,5.2649,5.2673,5.2678,5.2699,5.2697,5.2733,5.2708,5.2759,5.2733,5.2749,5.2757,5.276,5.2764,5.2737,5.2786,5.2864,5.2874,5.2768,5.2767,5.2766,0,5.2474,5.2526,5.2571,5.2585,5.2617,5.2638,5.2652,5.2674,5.2694,5.272,5.2733,5.2763,5.2779,5.2802,5.2808,5.2789,5.286,5.2834,5.2866,5.2866,5.2881,5.288,5.2965,5.2889,5.2889,5.2889,5.2888,0,5.2533,5.2571,5.259,5.2617,5.266,5.2667,5.2709,5.2722,5.2743,5.2773,5.2769,5.2797,5.2803,5.2832,5.2837,5.2879,5.2886,5.2892,5.2893,5.2893,5.2893,5.2905,5.2901,5.2891,5.289,5.289,5.289,0,5.2585,5.2598,5.2647,5.2675,5.2683,5.2714,5.2738,5.2764,5.2775,5.2813,5.2822,5.2837,5.2871,5.288,5.2919,5.2923,5.2974,5.297,5.2967,5.2968,5.2999,5.2997,5.3096,5.311,5.3023,5.3024,5.3024,0,5.2623,5.2653,5.2686,5.2707,5.2723,5.2756,5.2777,5.2786,5.2808,5.2839,5.2862,5.2897,5.2925,5.2979,5.2993,5.3025,5.3023,5.3055,5.3027,5.3028,5.3026,5.3025,5.3029,5.3061,5.3062,5.3062,5.3063,0,5.2689,5.2696,5.2727,5.2763,5.2789,5.2816,5.2842,5.2859,5.2871,5.2896,5.2933,5.2955,5.2997,5.3032,5.3064,5.3077,5.3073,5.3072,5.3081,5.3083,5.3081,5.3085,5.2984,5.307,5.3069,5.3069,5.3068,5.3068,5.2737,5.2764,5.2794,5.283,5.2851,5.2876,5.2904,5.2919,5.2951,5.2988,5.2991,5.3031,5.3056,5.3099,5.3115,5.3146,5.3136,5.3149,5.3152,5.3156,5.316,5.3075,5.3151,5.3151,5.3151,5.3151,5.3151,0,5.2805,5.2825,5.2858,5.2897,5.2926,5.2921,5.2951,5.2975,5.3011,5.3036,5.3065,5.3108,5.3143,5.3161,5.3195,5.3217,5.3216,5.3225,5.3225,5.3228,5.3165,5.3155,5.3226,5.3226,5.3226,5.3226,5.3226,5.3226,5.2845,5.2893,5.2903,5.2962,5.298,5.3022,5.304,5.3063,5.3084,5.3133,5.3163,5.3176,5.3198,5.3234,5.3266,5.327,5.3284,5.3295,5.3299,5.324,5.3232,5.3225,5.3216,5.3298,5.3298,5.3359,5.336,5.336]}]]